Wind_Speed
36 36 36 35 34 33 32 33 31 30 31 31 30 31 32 33 35 35 34 34 35 37 37 36 36 36 34 34 33 32 32 31 31 32 33 36 36 34 32 31 30 27 26 27 28 29 30 30 30 31 32 33 33 35 37 38 38 39 39 39 40 41 43 42 38 34 30 27 27 26 26 25 24 21 19 16 14 14 15 16 16 17 17 16 17 20
38 38 37 35 35 34 34 33 32 32 33 32 31 31 32 33 35 35 34 34 35 37 37 34 35 35 35 35 33 31 31 31 31 33 33 34 35 35 33 31 30 27 25 25 27 29 30 30 30 31 33 34 34 36 37 37 38 39 39 38 38 39 40 38 35 32 29 26 25 25 24 24 22 20 17 13 11 13 14 15 15 15 15 15 18 21
41 40 37 36 36 36 35 34 34 34 34 33 32 33 33 34 36 37 37 35 36 38 37 34 32 33 34 34 32 31 30 30 32 33 34 33 33 35 35 32 31 29 26 25 25 27 28 29 29 30 31 31 32 32 33 34 36 36 36 36 36 36 36 35 32 29 27 25 24 23 23 22 21 18 16 12 11 12 13 13 13 13 13 16 19 21
43 41 37 37 37 36 36 36 36 35 34 33 33 34 35 36 37 39 40 39 39 40 39 35 31 31 33 32 30 30 31 31 32 33 34 32 32 34 34 32 30 29 28 27 26 25 26 25 25 26 26 28 28 29 30 31 31 31 32 32 32 32 31 30 29 27 25 24 23 23 22 21 19 17 15 12 10 12 14 13 13 13 15 18 19 21
43 42 39 38 38 37 37 37 36 34 34 34 33 34 36 37 38 39 40 41 42 43 42 37 31 30 32 32 30 29 31 32 33 34 34 32 32 31 31 29 28 27 27 27 27 25 24 23 22 23 24 26 27 27 27 26 25 27 27 27 27 28 28 28 27 27 25 24 23 22 21 19 17 14 12 12 11 12 14 14 14 16 17 18 19 21
43 42 40 39 39 38 38 38 36 34 35 36 35 35 36 38 38 39 40 41 43 46 46 41 35 31 31 33 32 30 31 33 35 36 35 33 30 27 26 25 25 25 24 24 25 23 22 21 21 22 23 23 23 22 21 19 19 22 23 23 24 25 26 27 27 27 27 26 24 23 21 19 16 12 10 11 11 12 14 15 16 17 18 18 20 22
43 42 40 40 39 39 38 38 37 35 35 37 37 36 36 37 38 39 41 41 42 45 48 45 39 33 30 30 31 30 31 33 35 36 35 31 28 25 23 22 22 23 22 21 22 21 19 18 19 20 20 19 18 16 14 14 16 18 20 20 21 23 25 26 27 27 27 27 26 24 22 19 16 12 11 11 13 14 15 16 17 18 19 19 21 23
44 42 42 40 39 39 39 40 39 37 36 37 37 37 37 37 38 40 40 41 41 44 46 45 41 37 31 28 29 29 30 31 33 35 32 29 26 24 24 23 22 22 21 20 20 18 16 15 17 18 18 17 14 11 12 13 14 16 17 19 21 23 25 26 28 28 27 27 25 23 22 21 17 14 12 13 14 15 15 16 18 19 20 21 22 24
45 43 42 39 39 40 41 42 40 37 36 37 37 38 38 37 38 40 40 40 42 43 44 43 41 38 34 30 29 29 29 29 30 31 29 26 24 25 24 24 24 22 20 19 17 15 13 13 14 17 19 17 11 8 10 12 13 15 18 21 22 24 26 26 26 25 25 25 24 22 21 22 21 18 16 15 15 15 16 18 19 20 21 22 24 26
46 44 41 40 42 43 42 41 40 38 37 37 38 39 39 38 39 40 40 40 42 44 42 41 40 37 35 32 31 30 30 28 28 27 25 23 23 23 23 23 23 20 17 16 14 12 12 13 15 18 20 16 8 6 9 12 14 16 20 23 25 27 28 25 23 22 22 22 23 23 21 21 23 24 24 22 20 19 19 20 21 22 23 25 27 29
46 43 42 43 44 44 42 41 40 39 38 38 39 40 40 40 39 40 40 39 43 45 42 41 39 35 32 31 30 31 30 28 26 24 21 20 21 21 20 20 20 18 15 13 12 11 12 15 19 20 18 12 6 7 13 19 21 22 23 25 31 34 31 25 24 23 22 22 23 23 22 22 25 28 30 30 28 25 23 23 24 24 26 28 29 32
46 44 44 45 45 43 42 42 41 39 39 39 41 41 42 41 40 40 40 39 43 46 44 42 38 33 29 27 29 29 29 28 24 20 17 17 18 18 16 16 17 16 14 12 12 12 14 18 20 18 13 7 4 11 19 25 28 30 29 30 36 43 37 29 29 28 23 21 26 26 24 23 26 29 30 32 33 31 30 29 28 28 29 31 32 34
46 46 46 45 44 43 42 42 41 41 40 41 42 42 42 41 41 41 41 40 42 46 47 43 37 33 28 25 26 26 27 27 20 15 14 14 14 14 12 13 14 14 13 12 13 15 18 18 16 13 9 3 6 13 19 23 26 30 30 30 36 43 41 32 30 31 24 20 28 30 27 25 26 31 32 31 32 34 35 34 32 31 31 32 33 37
47 48 47 45 45 44 42 42 42 42 41 42 43 43 42 42 42 42 41 41 43 46 48 43 35 31 28 25 24 25 27 24 15 12 12 10 11 11 11 12 13 12 13 13 14 16 16 13 10 8 6 5 10 16 18 19 23 27 26 26 28 32 38 34 26 24 21 23 31 33 32 28 27 34 36 32 33 34 36 38 37 36 35 36 38 43
48 49 48 47 45 43 43 43 43 43 43 43 44 44 44 43 42 42 41 42 44 47 47 42 35 29 27 25 24 25 26 20 13 11 10 9 10 10 9 10 12 12 12 13 14 13 12 10 8 7 9 14 18 20 21 20 22 26 25 27 28 26 27 24 18 22 25 29 33 34 35 30 28 37 38 35 36 37 40 43 43 42 44 46 47 49
47 49 49 47 46 44 44 44 43 44 45 45 45 45 44 44 42 42 43 43 45 47 45 39 34 30 27 25 23 23 22 19 13 11 10 10 11 10 8 9 10 10 10 11 11 12 11 9 8 10 15 18 20 20 21 22 23 26 27 28 29 25 21 17 18 27 32 34 34 36 37 31 29 36 39 38 40 42 45 48 46 47 50 51 51 52
47 49 49 48 47 45 43 42 43 44 45 46 47 46 45 44 42 42 44 42 43 47 44 37 33 31 28 24 22 20 18 16 12 9 10 11 11 10 8 8 7 6 7 8 10 12 10 7 10 15 18 19 19 19 19 22 25 27 26 25 26 22 19 19 21 29 35 36 36 37 36 33 32 37 40 39 39 41 45 46 47 50 53 53 51 52
46 47 48 47 47 45 42 42 43 44 44 46 49 49 46 44 43 43 42 40 42 45 44 37 30 28 27 24 20 18 16 13 9 8 9 10 10 8 6 6 5 5 6 8 11 12 8 8 12 16 17 15 18 18 19 24 27 28 27 25 24 22 21 24 28 32 33 31 32 31 28 29 33 35 36 35 36 40 43 43 44 49 53 54 54 56
44 46 47 48 47 44 41 41 43 43 43 45 47 48 47 46 46 44 41 40 42 44 41 35 28 24 23 21 18 17 16 11 6 5 6 7 6 5 3 3 4 6 8 10 13 12 10 9 11 14 16 16 17 19 23 28 28 26 27 25 23 23 23 27 32 32 26 26 28 26 23 24 27 28 29 32 36 40 41 40 42 48 52 55 57 60
41 43 46 47 45 42 39 40 42 41 42 43 44 45 46 46 44 43 42 41 42 42 38 32 27 23 21 19 17 17 15 9 4 3 3 2 2 3 3 3 5 8 11 13 14 12 10 9 12 16 20 18 17 21 27 30 26 22 23 22 19 20 21 23 30 32 28 27 28 29 26 24 22 21 25 31 36 39 40 42 45 49 52 54 57 59
38 40 42 43 41 39 38 37 37 37 39 41 43 44 46 46 42 40 41 41 42 42 36 29 25 22 19 17 16 15 12 8 3 2 2 2 4 5 6 8 11 13 15 16 16 13 10 10 14 20 23 22 23 26 31 33 28 22 21 19 16 19 21 13 20 37 41 33 31 33 30 25 22 21 25 32 38 41 43 46 49 51 53 55 57 60
36 36 37 38 35 35 35 33 32 35 38 40 42 43 43 43 40 38 38 37 39 38 32 26 23 21 18 16 14 13 11 8 5 3 2 2 6 7 9 12 15 16 15 16 18 17 14 12 6 10 15 19 24 26 27 30 31 24 19 16 12 16 18 5 13 42 47 34 31 35 34 31 26 23 27 35 41 44 46 49 51 54 57 59 62 65
33 33 34 35 33 32 32 31 32 35 36 37 38 39 39 39 37 36 35 34 33 31 27 23 20 18 18 17 14 12 10 8 7 6 4 1 6 9 11 12 13 14 14 16 18 17 14 12 9 9 11 12 17 19 18 23 27 21 14 11 8 13 12 2 10 45 51 38 33 31 31 33 30 27 32 39 44 48 51 55 57 58 61 63 67 69
32 33 34 34 33 31 31 30 32 33 33 33 34 36 36 36 34 33 32 30 29 26 22 19 17 17 18 16 13 12 10 9 9 8 5 2 6 9 10 10 9 8 7 4 4 7 9 10 8 9 12 15 17 18 18 24 27 19 11 7 9 16 15 15 30 56 58 44 36 29 26 30 30 32 38 43 49 54 59 61 62 62 64 67 70 72
34 35 34 32 31 31 30 30 30 30 31 32 33 34 34 33 32 30 28 26 25 22 17 15 16 17 16 14 12 11 11 12 11 8 6 4 8 12 12 11 8 6 8 12 13 9 8 8 6 6 10 13 14 16 18 22 23 17 13 11 13 19 23 26 37 52 56 52 44 35 32 33 36 42 47 51 57 60 62 64 65 66 68 70 73 73
35 34 32 31 30 31 30 29 29 30 32 33 31 31 30 29 28 27 25 24 22 18 14 13 14 15 14 13 12 12 12 13 11 9 8 7 10 13 13 13 14 12 13 15 13 10 7 5 4 6 10 14 15 16 18 20 20 18 19 20 19 23 28 32 38 45 54 60 57 49 46 46 49 54 58 61 64 64 66 68 69 71 72 74 75 74
32 30 30 30 29 29 29 29 29 30 32 31 29 28 27 26 25 24 24 22 17 14 12 13 14 14 12 11 12 13 12 12 11 9 8 8 11 12 12 13 14 13 13 14 11 6 4 2 3 6 11 17 18 17 17 20 20 21 22 23 23 26 30 34 38 42 49 57 61 61 59 59 62 65 68 70 70 71 72 72 73 74 74 75 75 75
26 26 27 27 27 27 27 28 28 29 30 29 28 27 25 23 23 22 20 17 13 11 12 13 13 12 10 11 12 13 12 12 11 9 7 8 10 11 10 9 9 8 10 12 9 6 6 2 9 12 14 19 22 21 20 20 22 21 21 23 26 29 31 33 36 40 44 50 57 62 64 66 69 71 72 72 72 72 71 71 73 74 74 74 74 74
23 24 24 23 24 24 25 26 27 28 28 27 27 25 22 20 21 18 14 12 11 11 12 13 12 10 10 11 12 12 12 12 12 10 8 8 10 10 9 6 6 7 9 11 11 10 10 8 11 15 17 19 22 24 24 25 28 29 28 29 31 34 36 37 39 42 45 48 53 58 61 64 66 67 67 67 68 68 69 71 73 74 74 74 73 73
23 24 22 22 22 23 23 24 26 27 27 27 25 21 18 18 17 14 11 10 11 11 12 13 11 10 11 11 11 11 11 11 11 10 10 9 9 10 10 8 6 5 7 11 14 15 14 14 15 17 18 19 21 23 24 25 29 34 38 39 39 40 42 45 46 47 49 50 53 56 59 60 62 64 66 67 68 69 71 73 74 75 76 75 75 76
26 24 23 22 22 22 23 24 25 25 25 25 22 17 16 16 14 11 10 10 10 12 13 12 10 9 11 11 10 11 11 11 11 11 10 11 11 11 12 12 9 6 6 10 14 17 18 19 19 19 18 20 22 23 23 25 26 30 37 43 46 47 47 48 49 50 52 53 55 57 59 61 64 67 69 70 71 73 74 75 76 77 77 76 76 75
28 24 22 22 23 24 24 24 24 22 21 21 18 15 15 14 12 11 10 10 12 14 13 11 8 8 10 10 10 11 11 10 10 10 11 12 13 12 12 13 11 8 8 9 12 15 18 21 21 20 21 23 25 25 24 24 25 27 31 37 44 49 51 51 52 53 54 56 58 60 62 64 66 69 71 73 74 75 76 76 76 75 74 73 73 73
26 24 23 23 25 26 25 23 20 18 18 17 15 14 14 14 13 12 11 12 14 15 12 9 8 9 10 10 10 10 10 10 10 11 11 11 12 12 13 13 12 11 12 13 14 15 18 21 24 25 26 28 29 28 26 23 24 26 28 31 36 43 49 53 55 56 57 59 60 62 64 66 68 70 71 73 75 75 76 75 74 72 71 71 72 72
28 27 26 26 27 27 24 20 18 19 17 16 15 16 16 16 14 12 12 14 16 15 12 9 9 10 11 11 9 9 9 10 10 10 10 10 11 12 13 14 14 14 15 16 16 17 19 22 25 27 29 30 30 29 27 25 26 29 30 30 32 36 41 47 51 55 57 59 61 63 65 68 70 72 74 75 75 75 75 73 71 70 69 69 69 66
28 28 28 29 29 26 22 20 21 20 18 17 18 18 17 16 15 14 14 15 17 16 13 10 10 11 11 10 9 9 10 10 10 10 10 11 11 12 14 15 16 17 19 18 17 17 18 21 23 24 25 27 28 28 27 27 30 32 30 28 29 32 35 40 45 50 54 58 61 64 67 69 71 72 73 73 72 71 69 68 66 65 64 62 58 54
27 28 29 30 30 26 22 22 21 19 18 18 18 18 17 16 15 14 14 15 17 17 14 12 11 12 11 10 10 10 10 10 10 10 11 12 12 13 14 16 17 18 20 20 19 18 18 19 20 21 23 25 26 25 26 30 33 33 29 26 26 28 31 34 38 43 47 51 55 58 61 62 63 63 63 63 62 61 60 60 58 56 53 50 46 43
27 28 29 30 30 27 23 22 21 19 19 19 17 18 18 15 13 13 15 16 17 16 14 12 11 11 11 10 11 11 11 12 12 12 14 14 15 15 15 16 16 16 18 18 19 19 19 20 21 22 23 24 24 25 28 32 33 30 27 27 26 27 28 30 33 36 39 42 45 47 49 50 51 51 51 51 51 50 49 48 46 44 41 39 37 36
26 27 28 29 29 26 23 21 21 21 21 19 18 18 18 13 12 14 16 18 18 16 13 12 11 10 11 11 12 13 13 14 15 16 16 16 17 16 16 15 15 16 17 17 18 19 21 22 23 23 23 24 25 27 29 30 28 26 25 26 26 27 28 30 32 34 35 37 38 39 40 40 40 41 40 40 40 39 38 37 36 34 33 32 31 29
27 27 27 28 28 27 24 23 22 22 21 20 18 18 16 12 12 15 18 19 17 15 13 13 12 11 11 12 12 13 13 15 17 18 18 18 17 17 17 17 17 17 18 18 19 21 23 23 23 23 23 24 26 26 27 26 24 23 24 25 27 29 31 32 33 34 34 34 34 34 34 34 33 33 32 32 31 30 30 29 28 27 26 25 24 23
29 29 28 27 28 28 27 25 24 23 22 20 19 18 16 14 14 17 18 17 16 16 16 15 12 11 11 12 13 13 13 15 18 20 20 20 18 18 18 18 18 18 18 18 19 21 23 22 22 22 23 23 23 23 22 21 21 22 24 26 28 30 32 33 33 33 32 31 31 30 29 28 27 26 26 25 24 24 23 23 22 22 21 21 20 19
29 31 29 27 28 29 28 27 25 23 22 20 18 18 18 17 16 17 16 16 19 20 18 14 13 12 12 12 12 12 13 15 18 21 22 22 20 19 18 18 18 18 19 19 19 19 20 20 20 20 20 20 19 18 18 19 20 22 25 27 29 31 32 33 32 31 29 28 26 25 24 24 23 22 21 20 20 20 20 20 20 20 19 19 19 19
28 29 29 28 28 28 28 28 26 23 21 20 18 19 19 17 16 17 17 19 21 20 15 12 13 12 12 13 13 13 13 16 18 21 23 23 21 18 17 16 16 17 18 20 19 18 17 17 17 18 17 16 16 16 17 18 20 23 25 28 30 31 32 32 31 29 27 25 24 23 22 21 21 21 21 20 20 20 20 21 21 22 22 22 22 22
26 26 28 29 30 29 28 27 26 23 20 20 20 20 19 18 17 19 21 21 20 17 13 13 14 13 13 13 14 14 15 17 19 21 22 22 19 17 16 16 16 17 19 21 22 19 16 16 16 16 15 14 14 15 16 18 20 23 25 27 29 30 31 31 30 27 25 23 22 22 22 22 22 22 22 22 22 22 23 24 25 25 25 25 25 24
27 26 27 29 29 29 27 27 26 23 21 21 20 19 19 19 19 20 21 20 18 16 15 16 16 14 14 14 14 14 16 17 19 21 23 21 17 14 14 15 17 18 19 21 21 19 16 16 15 14 13 13 14 15 16 18 20 23 24 26 28 29 30 31 30 28 25 23 22 22 23 23 23 23 23 23 24 24 25 25 26 26 26 26 26 26
30 28 27 26 27 28 28 27 26 25 22 21 20 20 20 20 19 19 19 18 18 19 18 16 15 15 15 14 13 14 16 17 19 23 24 22 16 12 12 15 17 19 19 18 18 17 17 16 15 13 12 12 13 14 16 18 21 22 24 26 28 29 30 31 30 29 28 26 25 25 25 25 25 25 25 26 25 26 26 26 26 26 26 26 26 27
31 28 26 25 26 28 28 27 26 26 24 21 20 21 21 19 17 17 17 19 20 21 19 16 15 16 16 14 13 14 17 19 20 23 25 22 16 13 13 15 18 19 18 16 15 16 17 17 14 12 12 12 13 14 16 19 21 22 24 26 28 29 30 30 31 31 30 29 28 28 28 28 28 28 28 28 27 27 26 26 26 26 26 26 26 27
33 30 28 26 25 26 27 26 26 26 24 22 21 22 21 17 16 17 19 21 22 20 18 17 18 18 17 15 15 15 17 20 21 23 24 21 16 14 14 16 17 18 16 13 13 14 16 15 14 13 12 12 13 14 17 19 21 23 24 26 27 28 29 30 31 32 32 32 31 31 31 31 31 30 30 29 29 28 28 27 27 27 27 27 26 26
35 33 30 27 25 25 27 26 25 26 27 25 23 23 20 18 19 20 20 20 19 18 18 19 20 18 17 17 17 17 18 20 21 22 22 19 16 15 15 16 17 17 14 12 11 12 14 15 14 13 11 11 13 15 17 19 21 23 24 25 26 27 28 30 31 32 33 33 33 33 33 33 33 33 32 31 30 29 29 28 28 28 27 27 27 27
37 35 32 27 25 25 26 25 25 28 30 28 24 23 23 22 22 21 19 18 18 18 18 18 18 17 16 17 18 17 18 20 22 23 21 17 15 15 16 18 18 17 14 12 12 12 14 15 14 13 11 12 14 16 18 20 22 23 24 25 26 27 28 30 32 33 33 33 34 34 35 35 35 35 34 33 32 30 29 29 29 28 28 28 28 28
38 37 34 30 27 26 25 25 27 30 30 28 25 24 25 25 24 22 19 19 19 18 18 17 17 16 17 18 17 17 18 20 22 23 21 17 16 17 18 19 20 18 16 15 14 14 15 15 15 13 12 12 14 17 19 21 22 24 24 25 26 27 28 30 33 34 34 34 35 35 36 36 37 37 37 36 35 33 31 29 29 28 28 29 29 28
40 38 35 32 29 26 25 27 29 29 28 27 26 26 26 26 25 23 21 20 19 19 19 18 17 17 18 17 17 17 20 21 22 22 20 17 16 18 19 21 21 20 18 17 16 15 15 16 15 14 13 13 15 17 19 21 23 24 25 25 26 28 29 31 33 34 35 35 35 36 36 36 37 37 37 37 37 35 33 31 30 29 29 29 29 29
Wind_Direction
270 270 271 272 275 276 276 277 280 281 280 281 285 288 290 292 293 295 296 297 298 298 301 305 309 312 313 311 311 313 314 317 319 319 318 317 317 317 318 318 316 314 308 302 300 298 298 299 303 306 309 311 314 318 320 322 324 327 328 328 327 326 326 325 323 321 320 319 319 317 313 309 307 305 306 303 290 280 277 273 269 272 276 282 294 303
268 269 270 273 274 274 275 278 279 278 277 280 283 284 285 287 288 290 291 293 293 294 298 302 306 309 310 309 312 314 316 319 320 318 315 315 315 315 319 321 318 316 311 306 304 301 300 301 304 308 311 312 313 316 320 323 325 327 328 327 325 325 326 327 327 325 325 325 324 322 318 315 314 311 310 304 286 275 275 277 278 278 280 290 300 304
267 268 270 272 273 274 276 276 276 276 279 283 285 285 286 286 287 288 289 290 291 292 294 298 303 305 305 307 312 316 319 320 318 315 313 314 317 318 322 326 324 320 316 312 309 306 305 305 309 313 316 317 318 320 324 327 328 328 328 327 328 330 331 332 333 333 333 331 328 327 324 322 320 316 312 302 279 270 274 279 282 284 290 297 302 304
267 268 270 271 272 273 274 274 276 279 282 284 285 286 287 287 289 291 292 293 292 292 294 296 301 303 303 307 314 321 322 320 317 313 313 318 323 323 326 328 326 323 321 319 317 315 315 316 321 325 328 329 329 331 332 332 333 334 336 336 337 338 338 339 340 342 342 339 335 332 330 327 324 319 312 303 282 270 273 279 284 288 295 300 303 307
267 268 269 269 270 272 273 275 276 279 281 282 283 284 286 288 290 291 294 295 296 296 296 298 302 305 308 313 321 325 322 319 317 314 316 323 328 327 327 327 324 322 322 322 322 324 327 330 335 339 339 339 338 337 338 338 339 339 341 344 346 346 346 347 350 351 351 347 342 338 335 332 326 319 311 304 294 283 280 284 289 294 300 307 311 315
265 267 268 269 270 271 273 274 276 277 279 280 281 283 285 288 290 291 293 295 298 299 299 301 306 311 316 319 325 327 323 321 319 318 321 327 330 329 327 324 321 321 324 325 326 330 336 340 344 344 342 344 343 343 344 343 340 339 345 353 356 357 357 359 1 1 359 355 350 345 340 337 329 318 306 302 300 296 294 296 300 305 312 318 320 320
262 264 265 267 269 271 273 273 274 275 277 279 282 284 285 287 289 290 292 294 297 298 299 303 308 313 318 321 324 325 323 322 319 318 322 328 330 326 322 320 319 322 329 332 332 335 341 345 344 342 344 348 348 346 345 344 345 348 356 5 9 12 14 15 15 13 10 7 2 354 347 342 336 324 308 302 304 305 307 309 313 319 323 325 324 322
260 261 263 266 269 271 271 271 272 275 278 281 283 283 283 284 286 288 290 293 296 296 298 303 308 312 316 321 324 322 321 320 317 317 323 329 329 323 319 320 322 326 331 335 339 343 348 349 343 341 346 349 349 345 343 348 355 3 14 22 26 27 27 28 27 24 20 17 14 7 0 357 352 344 331 320 317 320 322 323 325 326 325 324 322 320
260 261 264 266 268 267 267 269 273 277 279 280 280 280 281 283 285 286 289 292 292 293 296 301 305 309 315 323 324 321 319 318 316 320 326 329 325 321 322 325 328 330 332 340 350 355 354 349 342 343 345 346 348 348 352 4 14 26 37 40 40 37 34 32 30 28 25 23 23 19 13 10 7 2 354 344 337 335 333 329 327 324 322 321 320 320
260 261 263 264 264 264 267 271 275 276 276 277 278 279 281 281 283 285 288 290 290 291 294 298 301 307 316 324 324 320 319 318 319 324 328 327 321 321 327 330 333 336 338 348 356 354 347 342 343 346 344 339 338 360 19 30 37 42 45 46 45 36 29 28 29 29 26 24 26 24 17 14 13 8 3 357 349 343 337 330 325 322 320 320 321 323
261 262 263 263 263 265 268 271 273 274 275 275 276 277 278 280 282 284 286 289 290 291 293 295 297 305 317 323 321 320 319 317 321 328 329 322 315 320 330 333 336 341 344 346 343 341 342 339 339 341 339 330 336 37 47 42 39 37 38 41 36 26 21 26 30 30 27 25 25 23 16 12 10 6 2 358 351 343 337 331 326 323 321 321 322 324
262 262 262 262 264 266 268 270 271 273 274 274 274 275 277 280 282 283 285 287 288 289 290 292 297 307 318 321 319 319 315 313 323 331 324 313 311 322 336 340 343 349 352 348 339 339 339 335 334 333 332 330 18 52 47 38 32 27 29 34 29 21 19 26 30 26 24 18 13 12 7 4 4 359 355 354 352 344 336 330 326 324 322 321 321 320
261 261 261 262 264 265 266 268 270 271 271 272 272 274 277 280 281 282 284 286 287 288 289 291 300 311 318 319 317 313 304 308 322 322 308 310 319 332 345 350 353 353 352 349 340 335 332 331 332 331 325 334 55 45 34 30 21 11 14 22 24 21 18 21 23 19 14 353 347 350 347 345 350 349 346 345 347 343 336 331 327 326 325 322 319 315
259 260 261 262 262 264 266 268 269 270 270 271 272 274 275 277 279 281 284 285 285 285 287 292 302 310 313 313 309 299 296 305 313 298 300 317 329 342 351 352 351 347 343 337 330 331 333 337 343 342 335 346 6 1 354 355 353 349 351 355 0 8 13 14 7 356 344 322 324 331 333 333 331 332 333 333 335 335 331 326 322 320 319 317 316 314
257 260 261 261 262 264 266 266 267 269 269 269 270 272 274 276 278 280 282 282 282 284 286 294 302 307 307 306 301 296 297 304 305 298 311 324 333 347 352 346 342 336 330 325 327 340 352 360 6 5 360 357 356 351 344 346 351 354 355 350 345 348 4 10 347 330 326 316 317 322 325 323 312 313 320 324 325 326 325 322 316 314 313 310 310 311
256 258 260 261 262 262 263 265 268 269 270 270 270 271 273 275 277 279 279 279 282 284 287 294 302 305 306 303 301 300 300 303 305 310 321 326 336 346 347 343 337 329 327 328 341 3 14 22 37 29 18 17 21 20 15 15 13 9 5 2 357 351 351 348 325 327 334 329 326 323 319 313 302 307 316 317 316 317 318 318 315 314 314 311 308 308
255 257 260 261 261 262 264 267 268 268 270 272 272 272 272 273 275 275 276 279 282 284 287 293 299 303 304 302 302 300 297 298 304 316 321 323 335 343 346 348 342 339 343 346 7 27 33 53 59 35 20 20 22 19 11 4 2 1 358 359 5 0 348 339 329 333 340 336 329 322 315 310 305 308 312 310 309 313 315 316 315 313 313 312 309 307
255 257 259 260 260 261 263 264 264 265 268 270 272 273 274 274 273 272 274 278 279 280 284 291 296 300 300 301 301 296 289 289 298 316 317 316 330 345 350 349 358 11 9 14 34 47 58 66 51 25 10 5 359 351 342 334 337 346 345 345 360 7 358 353 350 345 338 325 317 314 308 304 305 306 307 306 306 311 315 316 314 312 311 309 307 307
253 255 257 257 258 260 261 262 263 264 266 266 268 272 274 274 274 276 277 277 277 279 284 291 296 298 297 297 294 284 281 281 282 296 296 304 336 7 13 359 25 34 37 46 53 63 70 52 26 2 355 356 352 346 339 329 324 328 335 341 352 1 360 357 356 346 322 299 295 296 293 295 303 307 305 304 304 308 312 313 311 310 309 307 307 309
251 253 256 257 259 261 260 260 261 263 264 264 265 266 268 269 273 276 278 278 279 281 285 292 297 297 296 296 287 278 280 277 246 238 261 292 27 73 106 90 63 56 63 68 63 67 74 52 20 2 357 350 340 340 337 331 324 322 334 341 340 349 354 353 354 342 312 287 278 278 283 292 300 302 300 302 306 309 310 308 307 309 309 308 309 312
250 251 255 258 260 261 259 258 261 261 260 260 261 262 263 266 269 271 274 276 278 281 287 293 295 295 295 291 282 280 284 282 267 239 227 137 117 123 125 107 85 76 79 80 75 78 91 75 38 14 2 348 334 332 331 327 324 327 342 346 339 345 344 340 347 329 305 282 268 268 273 280 286 292 299 306 310 310 309 308 308 309 309 308 310 312
251 252 255 258 259 259 259 258 257 256 255 256 257 260 263 267 269 269 270 272 275 281 288 292 292 294 293 283 278 281 280 284 298 288 267 126 132 141 133 116 96 87 89 91 91 94 106 108 71 343 335 331 321 318 318 315 313 319 339 353 353 336 326 344 339 310 290 264 257 261 260 265 275 287 295 302 306 307 307 308 308 308 307 308 310 311
251 253 254 256 256 256 258 257 254 254 256 258 260 262 264 267 269 270 271 272 275 280 285 288 291 291 284 278 280 281 279 295 313 296 286 156 148 157 149 131 110 103 107 110 107 106 118 144 184 238 255 264 271 277 283 291 300 313 334 348 336 300 298 91 272 272 258 240 245 254 257 264 271 278 285 293 298 300 303 304 305 306 306 308 309 310
250 250 251 255 257 259 260 259 257 259 260 260 260 261 263 266 268 270 272 274 276 277 280 285 286 279 273 274 278 280 288 307 310 295 286 238 184 190 183 161 137 127 136 145 134 134 151 172 192 216 227 230 232 239 255 275 292 309 319 304 278 266 247 190 219 240 238 236 245 255 267 275 278 279 281 287 291 294 297 300 302 304 306 307 307 307
248 249 252 255 258 259 259 259 260 261 260 258 258 260 263 267 269 271 272 272 272 273 276 278 274 269 269 271 274 282 296 303 300 294 288 247 215 220 214 199 201 223 251 270 276 253 205 177 161 197 238 246 240 240 255 271 281 289 283 260 241 243 232 209 218 234 241 246 252 260 271 276 279 280 281 285 290 293 295 297 299 301 302 303 303 304
248 250 252 253 254 255 256 257 256 257 258 258 260 263 266 268 269 270 269 266 266 269 271 267 261 261 264 269 275 284 292 294 294 295 289 251 220 224 223 223 240 257 258 260 271 266 228 187 161 204 247 267 264 255 255 258 258 259 264 257 238 233 233 223 222 231 241 247 251 256 265 272 277 280 284 288 291 293 294 295 296 297 298 299 300 302
249 250 251 251 252 253 254 254 255 257 260 263 266 267 268 269 268 264 263 263 267 270 265 256 252 253 258 267 276 280 283 285 286 288 278 242 218 220 226 239 256 260 249 249 262 257 204 214 286 258 270 291 294 281 263 257 257 256 257 253 239 233 237 236 231 232 238 244 249 254 263 272 278 281 284 286 287 288 290 291 292 293 295 297 299 301
251 251 250 251 252 253 253 253 254 255 258 261 264 265 266 268 266 261 261 268 274 267 255 249 248 250 256 269 278 282 286 289 292 294 273 231 222 228 234 255 277 262 237 240 250 224 183 243 303 296 298 308 310 302 284 266 260 258 254 248 240 236 240 243 241 240 242 244 248 254 261 267 272 275 278 279 281 284 286 288 290 291 294 296 299 300
250 250 250 250 252 252 252 252 252 252 255 257 259 261 264 264 262 259 261 264 258 247 244 246 246 250 260 272 281 288 293 297 300 301 284 246 237 243 244 259 284 265 235 231 231 216 201 223 274 290 299 307 311 309 299 278 263 258 256 255 250 245 244 245 246 249 253 253 252 253 256 261 266 270 274 277 280 282 286 288 290 291 293 295 297 300
247 249 250 250 251 253 252 252 253 254 256 258 260 264 266 262 259 257 251 243 236 232 236 241 244 252 263 271 282 292 296 298 299 300 294 275 258 254 253 258 267 252 227 222 222 221 224 237 256 271 283 297 303 308 311 299 277 263 257 257 257 254 251 251 252 255 258 259 259 258 259 262 267 271 274 277 280 282 285 287 289 291 293 294 296 298
240 241 244 248 250 253 253 253 253 254 257 260 265 268 266 260 256 249 237 230 230 233 235 235 239 253 266 277 290 297 297 294 292 293 292 282 269 263 262 262 264 258 230 219 219 226 240 255 264 268 276 288 293 299 311 315 301 281 266 258 257 257 257 258 260 261 261 261 263 264 265 268 271 273 275 277 279 281 284 287 289 290 292 294 296 298
240 242 245 249 251 252 252 252 255 258 262 265 268 267 261 254 247 238 226 219 227 235 233 230 233 246 261 275 285 291 293 291 290 291 288 279 269 267 267 265 267 274 270 249 236 237 250 262 270 273 277 282 284 286 296 308 310 301 286 270 262 259 259 261 263 265 265 265 266 267 268 270 272 274 275 277 279 281 284 287 289 291 293 295 297 300
242 244 244 247 249 250 251 253 259 262 262 263 265 261 252 244 236 228 215 209 224 234 232 229 236 245 253 263 271 280 287 287 287 290 289 281 272 270 273 274 271 274 277 271 263 260 263 267 271 273 276 280 280 278 284 297 306 308 302 288 276 267 263 263 264 266 267 268 269 269 270 271 273 275 276 278 280 282 285 288 290 293 295 297 299 301
237 237 238 240 244 248 252 254 255 252 251 251 250 245 238 234 229 220 209 209 221 230 230 233 247 254 253 255 262 276 285 287 289 294 296 292 284 278 278 280 275 270 269 268 266 267 267 267 268 269 273 278 279 277 282 293 304 310 307 297 286 279 273 270 269 269 269 270 271 272 272 273 274 276 277 279 281 284 287 289 292 294 297 299 300 301
235 235 236 239 241 244 248 250 248 246 244 243 243 241 236 230 224 216 209 212 220 223 223 230 247 257 258 259 270 286 297 299 297 300 301 297 289 285 283 281 277 270 266 265 267 269 269 268 268 271 277 282 283 284 290 300 307 311 310 301 292 287 282 278 275 274 273 273 273 274 275 276 277 278 279 281 283 286 289 292 294 296 298 299 299 300
233 231 234 238 240 241 243 247 249 249 246 244 245 245 240 230 223 216 213 219 224 222 218 221 234 249 259 270 284 296 302 302 301 304 309 305 297 294 292 287 281 274 268 266 268 270 271 272 276 282 288 290 291 294 302 308 311 312 313 310 303 296 290 286 282 279 278 277 277 277 278 279 280 281 283 285 287 290 292 294 296 297 298 299 301 304
232 230 231 235 238 238 239 243 248 248 246 243 241 242 241 231 217 213 216 222 227 227 227 229 235 248 261 277 292 300 306 309 311 313 314 311 304 299 294 290 287 280 273 270 272 277 280 282 287 291 293 294 299 306 311 312 312 313 315 316 313 308 302 297 293 290 288 286 285 285 285 285 286 287 289 290 292 294 295 297 298 300 302 304 306 307
234 233 233 235 237 236 235 239 243 245 245 243 238 238 240 230 212 211 218 223 225 229 237 245 250 263 278 291 299 304 311 315 316 316 313 308 304 301 297 293 292 289 284 281 285 291 294 294 294 296 298 302 308 314 316 315 315 316 319 319 318 316 314 310 307 304 301 299 297 296 295 295 295 296 296 297 299 300 302 304 305 307 308 309 310 311
235 235 234 235 236 235 233 233 238 241 242 240 238 238 239 232 218 219 223 225 224 225 233 243 253 272 288 295 297 301 309 314 314 313 311 308 307 306 304 303 302 299 295 294 297 299 300 299 299 300 304 310 316 318 317 318 321 323 324 324 324 323 321 319 317 315 313 312 310 308 307 306 306 306 307 308 310 311 312 313 314 315 316 317 318 319
235 235 235 234 235 234 231 230 233 237 238 236 233 232 230 220 215 222 226 226 227 227 230 238 252 272 283 287 290 295 305 312 313 312 312 312 312 311 310 309 307 304 301 301 301 302 302 303 303 306 312 318 321 320 320 323 328 329 329 329 328 328 328 327 326 325 323 321 318 316 315 315 315 316 317 319 320 320 322 323 325 327 330 332 333 334
236 236 235 235 236 235 232 231 232 234 237 237 233 230 226 216 213 222 228 228 231 232 233 240 254 268 275 276 279 287 301 310 313 314 315 315 316 316 314 313 311 310 309 308 307 307 309 310 311 316 322 324 323 323 326 330 332 331 331 331 332 333 334 334 333 331 328 326 324 323 323 323 325 327 328 330 332 334 337 339 342 345 347 349 351 353
239 238 236 236 237 237 233 232 231 232 235 238 233 229 227 221 216 221 223 225 229 231 234 248 261 266 269 274 279 288 300 309 312 314 314 314 316 317 317 315 314 314 316 316 315 316 316 320 325 329 330 328 326 329 332 333 332 332 332 334 336 338 340 340 339 336 333 331 331 331 333 336 339 340 342 343 345 348 350 354 357 359 1 3 4 5
243 242 239 237 238 238 235 233 233 231 232 235 232 228 228 225 220 221 221 222 225 227 232 247 255 256 261 273 283 293 301 307 310 311 311 313 315 317 318 317 315 314 317 320 319 318 318 325 333 334 331 329 330 331 332 331 331 332 334 336 339 343 345 346 344 341 337 337 338 340 343 347 348 350 352 353 355 357 359 2 4 5 6 7 7 9
241 240 239 237 237 238 237 234 232 229 228 231 232 228 228 227 223 223 222 220 223 229 235 241 246 250 258 268 279 290 298 303 307 312 314 314 314 316 321 322 319 317 318 319 319 319 322 329 332 330 329 331 331 330 331 330 331 333 335 339 343 347 349 350 348 345 343 342 345 348 352 354 354 354 355 357 1 4 5 6 6 6 7 7 7 8
237 237 239 239 238 237 235 232 230 228 227 229 230 228 228 228 225 223 220 217 223 234 238 240 245 253 260 267 278 289 298 304 311 316 317 316 314 317 323 324 323 321 319 316 318 322 325 328 329 329 329 330 329 329 329 328 330 333 337 342 346 350 351 351 351 351 350 350 351 353 356 357 357 357 358 360 2 5 6 6 6 5 5 5 6 7
232 234 237 238 238 237 234 230 228 227 227 226 227 228 228 227 225 222 215 213 221 231 238 245 253 257 260 265 278 292 303 308 313 318 318 316 314 319 325 325 324 322 317 311 313 321 324 325 328 330 329 327 326 326 326 327 331 335 339 345 349 351 351 351 352 353 355 356 357 357 356 356 356 357 358 359 0 1 2 2 3 3 2 2 3 4
226 228 231 234 235 235 232 229 228 228 228 226 225 227 228 225 224 221 214 213 219 227 236 247 255 259 266 274 283 294 302 305 309 317 318 315 316 324 329 327 324 321 316 310 312 318 321 323 326 327 324 322 323 323 323 327 332 336 340 345 349 350 351 351 351 353 355 356 357 358 358 357 356 355 355 356 356 357 357 358 358 358 359 358 358 359
221 223 226 229 231 231 228 226 226 227 227 225 224 225 225 223 222 220 215 216 221 227 234 243 251 259 269 278 285 292 297 300 307 316 316 312 317 330 333 328 324 320 316 312 312 314 315 317 320 321 319 319 320 319 322 327 332 336 340 344 348 349 349 349 350 351 352 353 353 353 355 356 357 357 356 354 352 352 353 354 354 354 354 354 354 354
219 220 221 220 224 226 223 221 223 226 226 224 221 219 220 223 225 220 213 214 221 227 233 242 250 258 266 273 279 287 293 299 307 314 312 309 316 327 328 324 320 317 312 308 305 305 306 310 314 316 318 318 317 318 321 326 330 334 338 342 345 346 347 347 347 347 348 349 350 350 351 352 354 356 356 355 352 349 348 349 350 351 352 351 350 348
218 219 218 216 220 223 219 217 221 224 223 219 215 214 216 221 225 223 216 215 220 226 232 240 249 257 264 270 279 288 293 299 306 312 311 310 316 322 323 320 316 311 305 302 301 302 304 307 312 317 319 317 317 318 321 324 327 330 334 338 341 344 345 345 345 345 345 346 347 348 348 349 349 350 351 351 350 348 346 345 346 347 348 348 347 346
220 220 219 216 218 220 218 217 219 220 217 212 212 213 214 217 223 226 224 222 224 228 233 238 246 257 266 274 283 289 291 295 302 307 308 309 314 319 320 319 314 307 299 296 297 300 304 307 311 316 318 316 316 318 320 322 324 326 329 334 337 340 342 342 342 342 342 343 344 346 346 345 345 346 346 346 346 345 344 343 342 342 343 344 343 343
Height
11001 11001 11002 11002 11003 11003 11003 11002 11003 11003 11001 11001 11001 10999 10997 10995 10993 10992 10991 10990 10987 10985 10986 10986 10985 10985 10984 10983 10982 10981 10978 10976 10972 10968 10963 10959 10958 10960 10960 10958 10957 10957 10956 10953 10952 10952 10951 10952 10952 10951 10950 10950 10949 10947 10946 10944 10943 10942 10940 10938 10936 10933 10930 10928 10926 10923 10921 10920 10919 10920 10919 10919 10919 10919 10919 10918 10918 10918 10918 10919 10921 10921 10921 10921 10921 10920
10997 10997 10998 11000 11000 10999 11000 11000 11000 10999 10998 10999 10999 10997 10996 10994 10991 10990 10990 10989 10986 10983 10984 10986 10985 10983 10982 10981 10980 10979 10977 10974 10970 10966 10962 10959 10956 10956 10957 10956 10954 10954 10954 10952 10951 10951 10950 10950 10951 10950 10949 10948 10947 10945 10944 10942 10940 10938 10936 10934 10932 10929 10926 10924 10922 10920 10918 10917 10916 10917 10917 10917 10917 10916 10916 10916 10916 10916 10916 10917 10918 10919 10919 10919 10919 10918
10992 10994 10996 10997 10996 10996 10996 10997 10996 10995 10995 10996 10995 10993 10992 10991 10988 10986 10986 10987 10984 10982 10982 10985 10986 10983 10981 10980 10979 10978 10974 10971 10968 10964 10960 10958 10955 10953 10953 10953 10951 10950 10950 10950 10950 10949 10949 10949 10949 10949 10947 10946 10945 10943 10941 10939 10936 10934 10932 10930 10927 10924 10922 10920 10918 10916 10915 10914 10913 10914 10914 10914 10914 10914 10914 10914 10914 10915 10915 10916 10916 10916 10916 10917 10916 10916
10987 10990 10994 10993 10992 10992 10992 10992 10992 10992 10992 10992 10992 10989 10987 10986 10985 10982 10980 10981 10980 10978 10978 10982 10985 10983 10979 10978 10978 10975 10971 10967 10964 10961 10958 10957 10955 10952 10950 10950 10949 10948 10947 10947 10948 10948 10947 10947 10947 10946 10945 10944 10941 10939 10938 10935 10933 10930 10927 10925 10922 10920 10917 10916 10914 10913 10912 10911 10911 10911 10912 10912 10912 10912 10912 10912 10913 10914 10914 10914 10914 10914 10914 10914 10914 10914
10983 10986 10989 10989 10988 10989 10989 10988 10989 10989 10989 10988 10988 10986 10984 10982 10981 10979 10976 10974 10973 10971 10971 10976 10980 10980 10976 10974 10974 10972 10967 10963 10960 10957 10956 10956 10955 10952 10950 10949 10947 10947 10946 10945 10945 10945 10945 10944 10944 10944 10942 10940 10938 10936 10934 10932 10929 10925 10922 10920 10917 10916 10914 10912 10911 10909 10908 10908 10908 10908 10909 10910 10910 10910 10910 10911 10912 10913 10913 10913 10913 10913 10913 10913 10912 10912
10981 10982 10985 10985 10985 10985 10985 10985 10985 10986 10985 10984 10984 10984 10981 10980 10978 10976 10974 10971 10968 10964 10962 10967 10973 10975 10974 10970 10969 10968 10964 10959 10956 10954 10954 10955 10954 10952 10949 10948 10946 10946 10946 10945 10943 10943 10942 10941 10941 10941 10939 10937 10934 10932 10930 10927 10924 10921 10918 10917 10915 10913 10911 10910 10908 10907 10906 10906 10906 10906 10907 10908 10909 10910 10910 10911 10912 10913 10913 10913 10912 10912 10912 10911 10910 10909
10978 10979 10980 10981 10981 10982 10982 10980 10981 10983 10982 10980 10981 10981 10979 10977 10975 10973 10971 10969 10967 10961 10956 10960 10966 10970 10972 10970 10967 10965 10961 10957 10954 10952 10953 10953 10952 10950 10948 10947 10946 10945 10946 10945 10943 10942 10941 10940 10939 10937 10935 10933 10930 10927 10924 10922 10920 10918 10917 10915 10913 10911 10909 10908 10907 10905 10905 10905 10905 10905 10905 10906 10908 10909 10910 10910 10911 10912 10912 10912 10911 10911 10910 10909 10908 10907
10974 10976 10976 10978 10979 10978 10977 10975 10976 10980 10980 10978 10977 10977 10976 10975 10973 10970 10968 10967 10965 10960 10956 10957 10960 10964 10969 10970 10967 10965 10961 10957 10954 10952 10951 10951 10949 10947 10946 10945 10945 10944 10945 10944 10942 10941 10939 10938 10936 10933 10931 10929 10927 10924 10921 10919 10917 10917 10916 10914 10912 10910 10908 10907 10905 10904 10904 10904 10904 10904 10904 10905 10907 10908 10909 10910 10910 10910 10910 10910 10910 10909 10909 10907 10906 10905
10971 10972 10974 10976 10976 10973 10972 10972 10974 10977 10977 10976 10974 10972 10972 10972 10970 10967 10966 10965 10962 10958 10956 10957 10958 10960 10964 10967 10966 10963 10960 10957 10954 10952 10950 10949 10947 10946 10944 10944 10943 10943 10943 10942 10941 10939 10936 10935 10932 10930 10927 10926 10925 10922 10919 10917 10916 10916 10915 10913 10911 10909 10907 10906 10904 10903 10903 10904 10904 10904 10904 10905 10906 10908 10909 10909 10909 10909 10909 10908 10908 10907 10906 10905 10904 10902
10967 10969 10972 10972 10970 10968 10969 10971 10972 10973 10973 10972 10970 10968 10968 10968 10967 10965 10964 10963 10958 10955 10956 10956 10957 10959 10962 10963 10962 10960 10957 10955 10954 10952 10950 10948 10946 10945 10944 10943 10942 10941 10941 10940 10938 10936 10934 10931 10929 10927 10926 10924 10922 10920 10917 10916 10915 10915 10914 10913 10911 10909 10907 10904 10902 10902 10902 10903 10904 10904 10905 10905 10906 10907 10908 10908 10909 10908 10908 10907 10906 10905 10903 10902 10901 10900
10962 10966 10968 10967 10965 10966 10967 10968 10969 10968 10969 10968 10966 10964 10964 10963 10964 10962 10961 10960 10955 10952 10953 10954 10956 10960 10963 10961 10959 10956 10953 10953 10953 10951 10950 10947 10945 10945 10944 10943 10941 10939 10938 10936 10934 10933 10931 10929 10926 10925 10924 10922 10920 10918 10916 10915 10915 10915 10915 10914 10912 10910 10906 10903 10901 10900 10901 10903 10904 10906 10906 10906 10906 10905 10905 10906 10907 10907 10907 10906 10904 10903 10901 10899 10897 10896
10959 10962 10962 10961 10962 10964 10964 10964 10965 10965 10965 10964 10962 10961 10960 10960 10961 10959 10958 10958 10953 10948 10949 10951 10955 10960 10963 10961 10958 10954 10951 10950 10952 10951 10949 10947 10945 10945 10944 10942 10939 10937 10935 10933 10931 10929 10928 10927 10925 10924 10922 10921 10919 10917 10916 10916 10916 10917 10917 10915 10913 10910 10906 10902 10899 10898 10900 10902 10904 10907 10908 10907 10906 10905 10904 10904 10904 10905 10905 10904 10903 10901 10899 10897 10894 10892
10955 10955 10956 10958 10958 10959 10960 10960 10960 10961 10960 10959 10957 10957 10957 10957 10957 10955 10955 10954 10950 10945 10943 10947 10954 10958 10959 10959 10956 10952 10949 10950 10952 10951 10949 10947 10945 10944 10943 10940 10938 10934 10932 10930 10928 10926 10926 10925 10924 10922 10921 10920 10918 10917 10916 10916 10916 10918 10918 10916 10914 10912 10908 10902 10900 10900 10902 10904 10905 10907 10909 10907 10905 10904 10903 10902 10902 10902 10902 10901 10900 10899 10897 10895 10892 10889
10949 10949 10951 10953 10953 10954 10957 10957 10956 10956 10956 10955 10953 10953 10954 10954 10953 10952 10952 10950 10947 10942 10939 10944 10954 10956 10955 10955 10954 10950 10949 10950 10951 10950 10948 10946 10944 10942 10940 10938 10935 10932 10930 10927 10926 10925 10925 10924 10922 10922 10922 10921 10920 10919 10918 10917 10916 10916 10917 10916 10915 10915 10912 10909 10908 10909 10909 10909 10909 10908 10908 10906 10905 10903 10902 10900 10899 10899 10898 10898 10897 10896 10894 10892 10890 10887
10945 10944 10946 10947 10949 10952 10952 10951 10951 10951 10951 10950 10949 10949 10950 10950 10950 10949 10948 10946 10942 10938 10937 10944 10951 10953 10952 10952 10950 10948 10947 10948 10949 10947 10946 10945 10942 10940 10938 10935 10933 10931 10928 10926 10925 10925 10925 10923 10922 10922 10923 10922 10921 10919 10918 10916 10914 10913 10914 10914 10914 10915 10916 10917 10917 10916 10914 10913 10912 10909 10906 10905 10903 10901 10900 10898 10896 10895 10895 10894 10893 10891 10890 10888 10886 10883
10942 10939 10940 10943 10945 10947 10947 10947 10947 10946 10945 10945 10945 10945 10946 10946 10946 10945 10943 10942 10939 10934 10937 10944 10947 10947 10948 10948 10947 10946 10945 10945 10945 10944 10943 10942 10940 10938 10936 10934 10932 10929 10927 10926 10925 10925 10925 10923 10923 10923 10923 10921 10918 10916 10914 10913 10912 10912 10912 10913 10913 10915 10918 10921 10920 10918 10915 10913 10910 10907 10905 10903 10901 10899 10897 10895 10893 10891 10891 10889 10887 10885 10883 10882 10880 10878
10937 10935 10936 10938 10939 10941 10943 10945 10944 10942 10941 10940 10938 10940 10942 10942 10942 10941 10938 10939 10936 10931 10934 10943 10945 10943 10943 10944 10944 10943 10942 10943 10943 10942 10940 10939 10938 10936 10934 10933 10931 10929 10927 10925 10925 10925 10925 10924 10923 10923 10922 10919 10915 10913 10911 10910 10909 10910 10911 10913 10915 10916 10919 10921 10921 10919 10915 10911 10907 10904 10901 10899 10898 10896 10893 10891 10889 10887 10887 10886 10883 10880 10878 10876 10875 10873
10933 10932 10932 10933 10934 10937 10941 10941 10939 10938 10938 10936 10932 10933 10936 10937 10937 10937 10936 10937 10933 10928 10931 10940 10943 10942 10940 10940 10941 10940 10940 10941 10941 10941 10939 10937 10936 10936 10934 10933 10931 10929 10927 10925 10925 10925 10924 10923 10923 10922 10920 10917 10914 10912 10909 10907 10906 10908 10910 10913 10916 10918 10919 10921 10920 10917 10912 10908 10904 10900 10897 10894 10893 10892 10889 10887 10885 10884 10884 10883 10880 10877 10874 10872 10870 10868
10930 10928 10927 10928 10929 10933 10937 10937 10935 10935 10934 10932 10930 10929 10930 10931 10930 10932 10933 10933 10929 10926 10929 10935 10939 10940 10938 10937 10937 10936 10937 10940 10941 10940 10939 10937 10936 10936 10934 10932 10929 10927 10925 10924 10923 10923 10923 10922 10922 10921 10919 10916 10913 10909 10905 10903 10905 10908 10910 10913 10916 10919 10921 10922 10920 10916 10912 10910 10905 10898 10894 10892 10890 10889 10886 10883 10881 10880 10880 10879 10877 10874 10871 10868 10865 10863
10926 10924 10921 10922 10925 10930 10934 10933 10931 10931 10931 10929 10928 10927 10925 10926 10927 10928 10928 10927 10925 10924 10927 10932 10934 10935 10935 10933 10932 10932 10934 10937 10939 10939 10938 10937 10936 10934 10932 10930 10927 10925 10923 10922 10921 10920 10920 10919 10919 10920 10918 10916 10913 10908 10903 10903 10906 10909 10911 10915 10920 10924 10926 10925 10923 10919 10915 10911 10904 10896 10891 10889 10888 10887 10885 10881 10879 10877 10876 10875 10873 10870 10868 10865 10862 10860
10921 10920 10917 10918 10922 10925 10927 10928 10928 10928 10927 10924 10923 10922 10920 10922 10925 10926 10925 10924 10922 10921 10925 10929 10930 10931 10931 10930 10929 10929 10931 10933 10935 10936 10936 10935 10934 10931 10929 10927 10925 10923 10921 10919 10917 10915 10914 10912 10913 10916 10919 10919 10918 10915 10911 10908 10907 10911 10915 10919 10923 10927 10928 10926 10924 10922 10917 10909 10899 10891 10887 10885 10885 10885 10882 10880 10877 10875 10873 10871 10868 10866 10865 10862 10860 10856
10915 10916 10914 10915 10918 10919 10920 10923 10923 10921 10919 10919 10918 10917 10917 10918 10921 10922 10922 10922 10920 10919 10923 10926 10927 10927 10927 10926 10927 10927 10928 10929 10931 10932 10932 10932 10931 10929 10927 10925 10923 10921 10919 10916 10913 10910 10908 10904 10900 10904 10913 10921 10925 10925 10922 10915 10908 10912 10918 10921 10925 10929 10927 10926 10928 10924 10913 10901 10891 10885 10882 10880 10882 10882 10880 10877 10875 10873 10870 10867 10864 10862 10860 10858 10856 10852
10911 10912 10911 10911 10913 10914 10915 10917 10917 10914 10914 10915 10915 10915 10915 10915 10916 10917 10918 10918 10918 10919 10921 10923 10924 10923 10922 10922 10924 10925 10925 10926 10927 10928 10929 10930 10929 10927 10925 10923 10921 10919 10916 10914 10911 10908 10905 10898 10890 10888 10897 10909 10918 10922 10922 10914 10907 10911 10918 10921 10926 10928 10924 10926 10928 10914 10895 10884 10881 10880 10880 10879 10879 10880 10877 10875 10873 10869 10867 10864 10861 10858 10855 10853 10850 10847
10907 10907 10906 10907 10909 10910 10911 10912 10911 10911 10912 10912 10911 10911 10911 10911 10913 10914 10914 10915 10916 10918 10920 10921 10921 10920 10919 10920 10922 10922 10923 10923 10924 10925 10926 10927 10926 10924 10922 10920 10918 10917 10914 10912 10911 10908 10904 10898 10890 10885 10887 10895 10903 10909 10910 10906 10905 10911 10918 10921 10925 10925 10919 10918 10914 10896 10881 10879 10880 10880 10881 10879 10877 10876 10874 10872 10869 10866 10863 10860 10857 10854 10851 10848 10846 10843
10902 10902 10903 10905 10906 10906 10907 10907 10907 10907 10907 10907 10907 10907 10908 10909 10910 10911 10911 10912 10914 10916 10919 10919 10918 10917 10917 10918 10919 10920 10921 10921 10921 10922 10923 10924 10923 10921 10919 10917 10915 10914 10912 10911 10911 10909 10905 10901 10896 10892 10889 10890 10894 10900 10902 10903 10907 10913 10916 10918 10919 10918 10912 10907 10902 10894 10887 10885 10882 10881 10881 10878 10874 10872 10870 10868 10865 10862 10858 10855 10853 10850 10848 10845 10843 10840
10897 10899 10900 10902 10902 10902 10903 10903 10903 10902 10902 10902 10904 10905 10906 10907 10907 10908 10908 10910 10912 10914 10917 10917 10916 10915 10916 10916 10917 10918 10918 10918 10919 10920 10920 10921 10920 10919 10918 10915 10913 10912 10911 10910 10909 10909 10906 10902 10898 10895 10892 10891 10893 10897 10899 10900 10905 10910 10911 10910 10910 10909 10905 10901 10898 10895 10891 10886 10882 10880 10879 10875 10871 10868 10865 10863 10860 10857 10854 10851 10849 10847 10845 10842 10840 10837
10893 10896 10897 10898 10898 10899 10899 10899 10899 10899 10899 10900 10902 10903 10903 10904 10905 10905 10906 10907 10910 10912 10914 10913 10913 10913 10914 10915 10915 10915 10915 10915 10916 10917 10917 10917 10917 10916 10915 10913 10911 10910 10910 10908 10908 10907 10904 10901 10898 10895 10893 10891 10892 10895 10895 10895 10898 10902 10904 10903 10902 10901 10899 10897 10894 10892 10889 10885 10881 10878 10875 10871 10866 10862 10860 10858 10856 10854 10852 10849 10846 10844 10842 10840 10837 10833
10891 10892 10893 10894 10895 10895 10895 10895 10895 10895 10896 10897 10898 10899 10901 10902 10902 10903 10904 10907 10909 10910 10910 10910 10911 10911 10912 10913 10912 10912 10912 10912 10912 10913 10913 10914 10913 10912 10912 10910 10908 10908 10907 10907 10906 10905 10903 10900 10897 10895 10893 10891 10890 10891 10892 10892 10894 10896 10898 10898 10897 10895 10894 10893 10892 10890 10888 10886 10882 10878 10874 10869 10864 10860 10858 10856 10855 10853 10850 10846 10843 10841 10839 10836 10833 10829
10888 10888 10890 10892 10892 10891 10892 10891 10891 10892 10892 10893 10894 10896 10898 10900 10900 10902 10904 10906 10907 10907 10907 10908 10908 10909 10910 10910 10910 10910 10910 10910 10909 10909 10910 10910 10909 10909 10909 10908 10906 10905 10905 10904 10903 10903 10901 10899 10897 10895 10892 10890 10889 10889 10889 10890 10891 10892 10893 10892 10891 10891 10890 10888 10887 10886 10885 10883 10880 10877 10873 10869 10864 10861 10857 10855 10853 10850 10847 10843 10839 10836 10834 10832 10828 10824
10884 10885 10887 10888 10888 10888 10888 10888 10888 10889 10890 10890 10891 10894 10897 10898 10900 10901 10903 10904 10904 10904 10905 10906 10907 10908 10908 10908 10908 10908 10907 10907 10907 10907 10907 10907 10907 10907 10907 10907 10905 10903 10902 10901 10901 10900 10899 10898 10896 10895 10893 10890 10888 10887 10886 10886 10886 10887 10887 10886 10886 10886 10885 10883 10883 10882 10880 10878 10875 10872 10870 10867 10862 10858 10854 10852 10849 10846 10843 10840 10836 10832 10830 10827 10823 10819
10879 10882 10884 10885 10885 10885 10885 10885 10885 10886 10887 10888 10890 10894 10896 10897 10898 10900 10900 10901 10902 10902 10903 10904 10906 10907 10907 10907 10907 10906 10905 10905 10905 10905 10905 10905 10905 10905 10905 10904 10903 10902 10900 10899 10899 10898 10897 10896 10895 10894 10892 10890 10887 10886 10884 10883 10882 10882 10881 10881 10881 10880 10879 10878 10877 10876 10874 10871 10869 10867 10865 10861 10858 10854 10850 10847 10844 10842 10839 10836 10833 10829 10825 10822 10818 10814
10876 10880 10882 10882 10881 10881 10881 10882 10883 10885 10886 10887 10889 10892 10894 10896 10897 10898 10898 10899 10899 10900 10901 10903 10905 10906 10906 10906 10905 10904 10904 10904 10904 10904 10903 10903 10903 10902 10902 10901 10901 10900 10898 10897 10897 10897 10896 10893 10892 10891 10890 10889 10887 10885 10884 10882 10880 10878 10876 10875 10875 10875 10874 10873 10872 10870 10868 10866 10863 10861 10858 10856 10853 10849 10845 10842 10840 10837 10835 10833 10829 10824 10820 10816 10812 10808
10875 10877 10879 10879 10877 10877 10878 10880 10882 10883 10884 10885 10887 10890 10892 10893 10895 10896 10897 10898 10897 10898 10899 10902 10904 10904 10904 10903 10903 10902 10902 10902 10902 10902 10901 10900 10899 10899 10899 10899 10899 10897 10895 10894 10895 10895 10893 10891 10889 10889 10888 10886 10885 10884 10882 10880 10878 10875 10873 10871 10870 10870 10869 10868 10867 10865 10862 10860 10858 10856 10853 10851 10848 10844 10841 10838 10835 10832 10830 10828 10824 10819 10815 10810 10805 10800
10871 10872 10874 10874 10873 10874 10876 10879 10880 10880 10881 10883 10884 10886 10888 10890 10891 10893 10894 10895 10895 10896 10898 10900 10901 10901 10901 10901 10901 10900 10900 10900 10900 10900 10899 10898 10897 10897 10898 10897 10897 10895 10893 10892 10892 10891 10890 10888 10887 10886 10886 10884 10882 10881 10879 10877 10875 10873 10870 10867 10865 10864 10863 10862 10861 10859 10858 10856 10853 10851 10848 10846 10843 10839 10836 10833 10830 10827 10824 10821 10817 10813 10808 10803 10798 10794
10866 10869 10870 10870 10870 10872 10874 10875 10876 10877 10879 10880 10881 10882 10885 10887 10889 10890 10892 10893 10893 10894 10897 10898 10899 10899 10899 10899 10898 10898 10898 10898 10898 10898 10897 10896 10895 10895 10896 10895 10894 10893 10892 10890 10890 10889 10887 10886 10885 10884 10883 10881 10879 10877 10875 10873 10871 10869 10866 10864 10861 10860 10858 10857 10856 10854 10853 10851 10848 10846 10843 10841 10838 10834 10831 10828 10825 10821 10817 10814 10810 10806 10801 10797 10792 10788
10862 10865 10866 10866 10867 10870 10872 10872 10873 10875 10877 10878 10879 10880 10883 10885 10887 10889 10890 10890 10891 10892 10895 10897 10897 10897 10897 10896 10896 10896 10896 10896 10896 10895 10895 10894 10893 10893 10893 10893 10892 10891 10889 10889 10888 10887 10885 10884 10883 10881 10880 10878 10876 10873 10871 10868 10866 10864 10862 10860 10858 10857 10855 10853 10852 10850 10848 10846 10843 10840 10838 10835 10832 10829 10825 10821 10818 10815 10811 10807 10803 10799 10795 10790 10786 10782
10859 10861 10862 10863 10864 10867 10870 10871 10871 10873 10874 10875 10877 10878 10880 10883 10886 10888 10888 10888 10888 10890 10892 10894 10895 10895 10894 10894 10893 10893 10893 10893 10892 10892 10891 10890 10890 10890 10889 10889 10889 10888 10887 10886 10885 10884 10883 10881 10880 10878 10876 10874 10872 10869 10867 10865 10863 10861 10859 10857 10856 10854 10852 10851 10849 10846 10844 10841 10838 10835 10832 10829 10826 10822 10819 10815 10812 10808 10805 10800 10797 10793 10789 10785 10781 10778
10856 10858 10859 10860 10862 10865 10867 10868 10869 10870 10871 10873 10875 10876 10878 10881 10884 10885 10885 10885 10886 10888 10890 10891 10891 10891 10891 10891 10891 10890 10890 10889 10889 10889 10888 10888 10887 10886 10885 10885 10885 10884 10883 10883 10882 10881 10879 10878 10876 10874 10872 10870 10867 10865 10864 10862 10860 10858 10856 10854 10853 10851 10849 10847 10845 10843 10840 10836 10833 10829 10826 10823 10820 10816 10813 10809 10806 10803 10799 10795 10791 10788 10784 10781 10777 10774
10853 10854 10856 10858 10859 10862 10864 10865 10866 10867 10869 10871 10873 10875 10877 10880 10882 10882 10882 10882 10884 10886 10888 10888 10889 10889 10889 10889 10888 10888 10888 10887 10887 10886 10886 10885 10884 10883 10882 10881 10880 10880 10879 10879 10878 10877 10875 10874 10872 10869 10867 10865 10863 10862 10860 10859 10857 10855 10854 10852 10850 10848 10846 10844 10841 10838 10834 10831 10827 10823 10820 10817 10814 10811 10808 10804 10801 10798 10794 10791 10788 10784 10781 10777 10774 10771
10849 10851 10853 10855 10856 10858 10860 10862 10864 10865 10867 10869 10871 10873 10875 10878 10879 10878 10879 10881 10883 10884 10885 10886 10887 10888 10888 10887 10887 10886 10886 10886 10885 10884 10883 10882 10881 10879 10878 10878 10877 10876 10875 10875 10874 10873 10871 10869 10867 10865 10863 10861 10860 10858 10857 10855 10854 10853 10851 10850 10847 10845 10843 10840 10836 10833 10830 10826 10823 10819 10816 10813 10810 10807 10804 10801 10798 10795 10792 10788 10785 10782 10779 10775 10772 10770
10846 10848 10850 10852 10853 10855 10857 10860 10862 10864 10865 10868 10870 10872 10873 10875 10876 10877 10878 10879 10879 10880 10882 10885 10886 10886 10886 10885 10884 10884 10885 10884 10883 10882 10880 10879 10878 10876 10875 10874 10874 10873 10872 10871 10870 10869 10868 10866 10864 10862 10860 10859 10857 10856 10854 10853 10852 10851 10849 10847 10845 10842 10840 10836 10833 10830 10827 10824 10820 10817 10814 10811 10808 10805 10802 10799 10796 10793 10790 10787 10783 10780 10777 10774 10771 10768
10844 10846 10848 10850 10851 10852 10855 10858 10860 10863 10865 10866 10868 10870 10871 10873 10875 10876 10876 10876 10877 10879 10881 10883 10882 10882 10882 10882 10882 10882 10883 10882 10881 10880 10879 10877 10875 10873 10872 10871 10871 10870 10869 10868 10867 10866 10864 10863 10861 10859 10858 10856 10855 10854 10852 10851 10850 10849 10847 10845 10842 10840 10837 10834 10831 10828 10825 10822 10819 10815 10812 10809 10806 10803 10800 10797 10794 10791 10788 10785 10782 10779 10776 10773 10770 10767
10842 10844 10846 10847 10848 10850 10853 10856 10859 10861 10863 10864 10866 10868 10869 10871 10873 10873 10873 10874 10876 10878 10880 10879 10879 10879 10879 10879 10880 10880 10880 10880 10879 10878 10877 10875 10872 10870 10868 10868 10868 10868 10867 10865 10863 10863 10861 10860 10858 10857 10856 10854 10853 10852 10851 10850 10848 10847 10845 10843 10840 10838 10835 10832 10829 10826 10824 10820 10817 10814 10811 10808 10805 10802 10799 10796 10793 10790 10786 10783 10780 10778 10775 10772 10769 10766
10838 10840 10841 10843 10845 10847 10850 10853 10856 10859 10861 10862 10863 10865 10867 10868 10870 10871 10872 10873 10875 10876 10876 10876 10876 10877 10877 10877 10878 10878 10878 10877 10876 10875 10873 10872 10870 10867 10866 10866 10865 10865 10864 10862 10861 10860 10859 10857 10856 10855 10854 10853 10851 10850 10849 10848 10846 10845 10843 10841 10839 10836 10833 10831 10828 10825 10822 10819 10816 10813 10810 10807 10804 10801 10798 10795 10791 10788 10785 10782 10779 10777 10774 10772 10769 10766
10834 10836 10838 10840 10842 10844 10846 10850 10853 10856 10858 10860 10861 10863 10864 10865 10867 10869 10870 10872 10873 10872 10872 10873 10874 10874 10874 10875 10876 10876 10875 10874 10873 10872 10870 10869 10868 10866 10864 10863 10863 10862 10861 10860 10858 10857 10857 10855 10854 10853 10852 10851 10850 10849 10847 10846 10845 10843 10841 10839 10836 10834 10832 10829 10827 10824 10821 10817 10814 10811 10809 10806 10803 10800 10797 10793 10790 10787 10784 10782 10779 10777 10774 10772 10769 10767
10829 10833 10835 10837 10838 10840 10843 10847 10850 10853 10855 10857 10859 10860 10861 10863 10865 10867 10869 10870 10870 10869 10870 10871 10871 10871 10871 10872 10873 10873 10872 10871 10870 10869 10867 10866 10865 10863 10861 10861 10860 10859 10858 10857 10856 10855 10854 10853 10852 10851 10849 10848 10848 10847 10845 10844 10842 10840 10838 10836 10834 10832 10830 10828 10825 10822 10819 10816 10813 10810 10807 10805 10802 10798 10795 10792 10789 10787 10784 10782 10779 10777 10774 10772 10769 10767
10825 10828 10830 10833 10835 10837 10841 10844 10847 10850 10852 10854 10856 10857 10859 10862 10863 10864 10865 10867 10867 10868 10869 10869 10868 10868 10869 10869 10869 10870 10869 10868 10867 10866 10865 10863 10861 10860 10859 10858 10858 10856 10856 10855 10854 10853 10852 10851 10850 10848 10847 10846 10845 10844 10843 10842 10840 10838 10836 10834 10832 10830 10828 10826 10824 10821 10818 10815 10812 10809 10806 10803 10800 10797 10794 10791 10789 10786 10784 10781 10779 10776 10774 10772 10769 10767
10820 10823 10826 10829 10832 10834 10837 10841 10844 10846 10848 10850 10853 10855 10857 10859 10859 10861 10863 10865 10866 10867 10867 10866 10865 10866 10866 10866 10866 10867 10867 10865 10864 10864 10863 10861 10859 10857 10856 10856 10856 10855 10854 10853 10853 10851 10850 10849 10848 10846 10845 10844 10843 10842 10841 10839 10838 10836 10834 10832 10830 10829 10826 10824 10822 10819 10816 10814 10811 10808 10806 10803 10800 10796 10793 10790 10788 10785 10783 10780 10778 10775 10773 10771 10769 10767
10816 10818 10821 10825 10828 10830 10834 10838 10840 10841 10843 10846 10849 10852 10853 10854 10856 10858 10862 10863 10864 10864 10863 10863 10863 10863 10864 10864 10864 10865 10864 10863 10861 10861 10861 10859 10856 10854 10854 10854 10854 10853 10852 10851 10850 10849 10848 10847 10846 10844 10842 10841 10840 10839 10838 10837 10835 10834 10832 10830 10829 10827 10825 10822 10820 10817 10815 10812 10809 10806 10803 10800 10798 10795 10792 10790 10787 10784 10782 10779 10777 10775 10772 10770 10768 10766
10814 10815 10818 10822 10824 10827 10830 10833 10834 10835 10838 10843 10846 10848 10849 10851 10853 10856 10858 10860 10861 10861 10861 10861 10861 10861 10861 10862 10862 10863 10862 10860 10859 10857 10857 10856 10854 10852 10852 10852 10852 10851 10850 10848 10847 10847 10846 10844 10843 10841 10840 10839 10838 10837 10836 10834 10833 10832 10830 10828 10827 10825 10823 10820 10818 10815 10812 10809 10807 10803 10800 10797 10795 10792 10790 10788 10786 10783 10781 10778 10776 10774 10771 10769 10767 10765
10811 10813 10816 10819 10822 10824 10827 10828 10830 10832 10836 10840 10843 10844 10847 10849 10851 10853 10855 10856 10858 10858 10858 10858 10859 10859 10859 10859 10859 10860 10859 10858 10856 10855 10854 10853 10852 10851 10850 10850 10849 10849 10848 10846 10844 10844 10843 10841 10839 10838 10837 10836 10836 10835 10834 10832 10831 10830 10828 10826 10824 10822 10820 10818 10815 10812 10809 10806 10804 10801 10798 10795 10792 10790 10788 10786 10784 10782 10779 10777 10775 10772 10770 10768 10766 10763